Flag for Nepal Weather past 2 weeks in Pokhara, Nepal

Now
48 °F

Fog.


Feels Like: 48 °F
Forecast: 54 / 61 °F
Wind: No wind

Location: Kathmandu Airport

Current Time: Feb 28, 2015 at 8:27:12 AM

Latest Report: Feb 28, 2015 at 7:35 AM


Visibility: 2 mi

Pressure: 30.15 "Hg

Humidity: 87%

Dew point: 45 °F

Location of PokharaLocation

Historic Weather in Pokhara — Graph

°F

Pokhara temperature yesterday

Maximum temperature yesterday: 72 °F (at 12:35 PM)
Minimum temperature yesterday: 48 °F (at 6:35 AM)
Average temperature yesterday: 59 °F

Past Weeks' High & Low Weather Summary

 TemperatureHumidityPressure
High72 °F (Feb 22, 1:35 PM)100% (Feb 20, 3:35 AM)30.21 "Hg (Feb 20, 3:35 AM)
Low43 °F (Feb 14, 6:35 AM)31% (Feb 27, 2:35 PM)29.92 "Hg (Feb 13, 2:35 PM)
Average57 °F76%30.06 "Hg
* Reported Feb 13 6:35 AM — Feb 28 6:35 AM, Pokhara, Weather by CustomWeather, © 2015

Note: Actual official high and low records may vary slightly from our data, if they occured in-between our weather recording intervals... More about our weather records

Advertising

Pokhara weather history for previous 24 hours

 ConditionsComfort  
Time TempWeatherWind HumidityBarometerVisibility
6:35 AM
Sat, Feb 28
45 °FPartly cloudy.5 mph93%30.12 "Hg2 mi
5:35 AM46 °FPassing clouds.3 mph87%30.09 "Hg4 mi
4:35 AM46 °FPassing clouds.5 mph87%30.07 "Hg4 mi
3:35 AM46 °FPassing clouds.3 mph87%30.07 "Hg4 mi
2:35 AM46 °FPassing clouds.5 mph93%30.09 "Hg4 mi
12:35 AM50 °FPassing clouds.No wind82%30.09 "Hg4 mi
11:35 PM
Fri, Feb 27
52 °FPassing clouds.No wind77%30.09 "Hg4 mi
10:35 PM54 °FPassing clouds.No wind67%30.09 "Hg4 mi
9:35 PM54 °FPassing clouds.3 mph72%30.09 "Hg4 mi
8:35 PM57 °FPassing clouds.3 mph67%30.07 "Hg4 mi
7:35 PM61 °FPassing clouds.3 mph59%30.04 "Hg4 mi
6:35 PM64 °FPassing clouds.5 mph49%30.01 "HgN/A
5:35 PM68 °FPassing clouds.6 mph40%29.98 "HgN/A
4:35 PM70 °FScattered clouds.10 mph38%29.98 "HgN/A
3:35 PM72 °FScattered clouds.9 mph36%29.98 "HgN/A
2:35 PM72 °FScattered clouds.13 mph31%30.01 "HgN/A
1:35 PM72 °FPassing clouds.17 mph33%30.04 "HgN/A
12:35 PM72 °FPassing clouds.No wind38%30.07 "Hg5 mi
11:35 AM66 °FHaze.No wind56%30.09 "Hg4 mi
10:35 AM61 °FHaze.No wind68%30.09 "Hg3 mi
9:35 AM55 °FFog.No wind82%30.09 "Hg2 mi
8:35 AM52 °FFog.No wind94%30.09 "Hg1 mi
Weather by CustomWeather, © 2015

See weather overviewHow to use our weather pages